sat.trackr.live / text

‹ back to catalog

USA 153

NORAD 26575 · 2000-065A

PAYLOAD ACTIVE UNKNOWN

§ Identity

Operator
Country
US
Launch date
2000-10-20
Launch site
AFETR
Launch vehicle
Mass (kg)
RCS (m²)

Purposes: comms

External: N2YO · Heavens-Above · Gunter

§ Orbital elements

Epoch: 2026-05-24T13:38:38.559840Z

Period
1,436.05 min
Inclination
11.5859°
Eccentricity
0.0003129
Mean motion
1.00275210 rev/d
Perigee alt
35,772.4 km
Apogee alt
35,798.8 km
Semi-major
42,163.8 km
B*
0.0000e+0
RAAN
35.6189°
Arg perigee
33.3268°
Mean anomaly
152.2963°
Rev number
3,269

§ Raw data

USA 1531 26575U 00065A   26144.56850185 -.00000330  00000+0  00000+0 0  99962 26575  11.5859  35.6189 0003129  33.3268 152.2963  1.00275210 32694

JSON: /api/v1/satellites/26575 · /tle

For live sub-satellite position, see the globe view (requires WebGL).

§ Visibility from observer

Set your observer location to see the next 7 days of passes ≥ 10°. The values pass through the URL so the page stays shareable.

No JS? Fill the form by hand. The geolocation button needs JavaScript.